Probability
0 0 0 0 0 0 0 0 0 0 0 0 0 0 0 0 0 0 0 0 0 0 0 0 0 0 0 0 0 0 0 0 0 0 0 0 0 0 3 3 0 0 0 0
0 0 0 0 0 0 0 0 0 0 0 0 0 0 0 0 0 0 0 0 0 0 0 0 0 0 0 0 0 0 0 0 0 0 0 0 0 0 0 3 0 0 0 0
0 0 0 0 0 0 0 0 0 0 0 0 0 0 0 0 0 0 0 0 0 0 0 0 0 0 0 0 0 0 0 0 0 0 0 0 0 0 0 0 0 0 0 0
0 0 0 0 0 0 0 0 0 0 0 0 0 0 0 0 0 0 0 0 0 0 0 0 0 0 0 0 0 0 0 0 0 0 0 0 0 0 0 0 0 0 0 0
0 0 0 0 0 0 0 0 0 0 0 0 0 0 0 0 0 0 0 0 0 0 0 0 0 0 0 0 0 0 0 0 0 0 0 0 0 0 0 0 0 0 0 0
0 0 0 0 0 0 0 0 0 0 0 0 0 0 0 0 0 0 0 0 0 0 0 0 0 0 0 0 0 0 0 0 0 0 0 0 0 0 0 0 0 0 0 0
0 0 0 0 0 0 0 0 0 0 0 0 0 0 0 0 0 0 0 0 0 0 0 0 0 0 0 0 0 0 0 0 0 0 0 0 0 0 0 0 0 0 0 0
0 0 0 0 0 0 0 0 0 0 0 0 0 0 0 0 0 0 0 0 0 0 0 0 0 0 0 0 0 0 0 0 0 0 0 0 0 0 0 0 0 0 0 0
0 0 0 0 0 0 0 0 0 0 0 0 0 0 0 0 0 0 0 0 0 0 0 0 0 0 0 0 0 0 0 0 0 0 0 0 0 0 0 0 0 0 0 0
0 0 0 0 0 0 0 0 0 0 0 0 0 0 0 0 0 0 0 0 0 0 0 0 0 0 0 0 0 0 0 0 0 0 0 0 0 0 0 0 0 0 0 0
0 0 0 0 0 0 0 0 0 0 0 0 0 0 0 0 0 0 0 0 0 0 0 0 0 0 0 0 0 0 0 0 0 0 0 0 0 0 0 0 0 0 0 0
0 0 0 0 0 0 0 0 0 0 0 0 0 0 0 0 0 0 0 0 0 0 0 0 0 0 0 0 0 0 0 0 0 0 0 0 0 0 0 0 0 0 0 0
0 0 0 0 0 0 0 0 0 0 0 0 0 0 0 0 0 0 0 0 0 0 0 0 0 0 0 0 0 0 0 0 0 0 0 0 0 0 0 0 0 0 0 0
0 0 0 0 0 0 0 0 0 0 0 0 0 0 0 0 0 0 0 0 0 0 0 0 0 0 0 0 0 0 0 0 0 0 0 0 0 0 0 0 0 0 0 0
0 0 0 0 0 0 0 0 0 0 0 0 0 0 0 0 0 0 0 0 0 0 0 0 0 0 0 0 0 0 0 0 0 0 0 0 0 0 0 0 0 0 0 0
0 0 0 0 0 0 0 0 0 0 0 0 0 0 0 0 0 0 0 0 0 0 0 0 0 0 0 0 0 0 0 0 0 0 0 0 0 0 0 0 0 0 0 0
0 0 0 0 0 0 0 0 0 0 0 0 0 0 0 0 0 0 0 0 0 0 0 0 0 0 0 0 0 0 0 0 0 0 0 0 0 0 0 0 0 0 0 0
0 0 0 0 0 0 0 0 0 0 0 0 0 0 0 0 0 0 0 0 0 0 0 0 0 0 0 0 0 0 0 0 0 0 0 0 0 0 0 0 0 0 0 0
0 0 0 0 0 0 0 0 0 0 0 0 0 0 0 0 0 0 0 0 0 0 0 0 0 0 0 0 0 0 0 0 0 0 0 0 0 0 0 0 0 0 0 0
0 0 0 0 0 0 0 0 0 0 0 0 0 0 0 0 0 0 0 0 0 0 0 0 0 0 0 0 0 0 0 0 0 0 0 0 0 0 0 0 0 0 0 0
0 0 0 0 0 0 0 0 0 0 0 0 0 0 0 0 0 0 0 0 0 0 0 0 0 0 0 0 0 0 0 0 0 0 0 0 0 0 0 0 0 0 0 0
0 0 0 0 0 0 0 0 0 0 0 0 0 0 0 0 0 0 0 0 0 0 0 0 0 0 0 0 0 0 0 0 0 0 0 0 0 0 0 0 0 0 0 0
0 0 0 0 0 0 0 0 0 0 0 0 0 0 0 0 0 0 0 0 0 0 0 0 0 0 0 0 0 0 0 0 0 0 0 0 0 0 0 0 0 0 0 0
0 0 0 0 0 0 0 0 0 0 0 0 0 0 0 0 0 0 0 0 0 0 0 0 0 0 0 0 0 0 0 0 0 0 0 0 0 0 0 0 0 0 0 0
0 0 0 0 0 0 0 0 0 0 0 0 0 0 0 0 0 0 0 0 0 0 0 0 0 0 0 0 0 0 0 0 0 0 0 0 0 0 0 0 0 0 0 0
0 0 0 0 0 0 0 0 0 0 0 0 0 0 0 0 0 0 0 0 0 0 0 0 0 0 0 0 0 0 0 0 0 0 0 0 0 0 0 0 0 0 0 0
Height
5676 5679 5680 5681 5682 5683 5683 5683 5682 5682 5682 5682 5681 5680 5679 5678 5677 5677 5676 5676 5675 5675 5675 5675 5677 5679 5681 5684 5687 5692 5696 5701 5706 5712 5718 5724 5729 5735 5740 5746 5751 5755 5759 5764
5673 5675 5676 5677 5678 5679 5679 5679 5679 5679 5679 5678 5677 5676 5675 5674 5673 5672 5672 5671 5671 5671 5671 5671 5672 5673 5675 5677 5680 5683 5687 5692 5696 5702 5707 5712 5718 5723 5729 5735 5740 5745 5749 5753
5670 5673 5673 5674 5675 5676 5676 5676 5676 5676 5676 5674 5674 5673 5672 5671 5669 5669 5668 5667 5666 5666 5666 5666 5667 5668 5669 5671 5673 5676 5679 5683 5687 5692 5697 5701 5706 5711 5718 5723 5728 5734 5738 5742
5667 5669 5671 5672 5673 5673 5673 5673 5673 5673 5673 5672 5672 5670 5670 5668 5666 5665 5664 5663 5662 5662 5661 5661 5661 5661 5662 5664 5666 5669 5671 5674 5678 5682 5687 5692 5696 5702 5708 5713 5718 5724 5727 5732
5666 5667 5669 5670 5671 5671 5671 5671 5671 5670 5670 5669 5669 5668 5668 5665 5664 5662 5661 5659 5659 5658 5657 5656 5656 5656 5657 5658 5659 5661 5663 5666 5669 5673 5677 5682 5686 5692 5697 5702 5708 5712 5716 5720
5664 5665 5667 5668 5669 5669 5669 5669 5669 5668 5668 5668 5667 5666 5665 5663 5661 5660 5658 5657 5655 5654 5653 5653 5652 5651 5651 5651 5652 5654 5655 5658 5660 5663 5667 5672 5677 5682 5687 5692 5696 5701 5705 5709
5663 5664 5665 5666 5667 5667 5667 5668 5668 5667 5666 5666 5665 5663 5663 5661 5659 5657 5656 5654 5652 5651 5650 5649 5647 5646 5646 5646 5646 5647 5649 5651 5653 5656 5659 5664 5668 5673 5677 5682 5686 5690 5694 5698
5662 5664 5665 5665 5666 5666 5666 5667 5667 5667 5665 5664 5663 5661 5661 5659 5657 5655 5654 5652 5650 5649 5647 5645 5644 5643 5642 5642 5642 5643 5644 5645 5647 5650 5653 5656 5660 5664 5668 5672 5676 5679 5683 5687
5661 5663 5664 5664 5664 5665 5665 5665 5665 5665 5664 5663 5661 5661 5660 5657 5656 5654 5652 5651 5649 5647 5645 5643 5641 5640 5639 5639 5639 5639 5640 5640 5642 5643 5646 5649 5652 5656 5660 5663 5665 5668 5672 5675
5660 5662 5662 5663 5663 5664 5664 5664 5664 5663 5662 5661 5661 5659 5658 5656 5654 5653 5651 5649 5647 5645 5643 5641 5640 5638 5637 5636 5635 5635 5635 5636 5636 5638 5640 5642 5645 5648 5651 5654 5656 5659 5661 5664
5660 5661 5662 5662 5662 5663 5663 5663 5662 5662 5661 5660 5659 5660 5656 5654 5653 5651 5649 5648 5645 5644 5642 5640 5638 5636 5635 5634 5633 5632 5631 5631 5632 5633 5634 5636 5638 5641 5643 5646 5648 5649 5651 5653
5660 5661 5661 5662 5662 5661 5662 5661 5661 5661 5660 5658 5657 5660 5655 5653 5651 5649 5648 5646 5644 5643 5641 5639 5637 5635 5634 5632 5631 5630 5629 5628 5628 5628 5629 5630 5632 5633 5636 5637 5639 5640 5642 5643
5660 5661 5661 5661 5663 5662 5661 5660 5660 5659 5658 5657 5656 5658 5653 5651 5650 5648 5646 5645 5643 5642 5640 5638 5637 5635 5633 5631 5630 5628 5627 5626 5625 5625 5624 5625 5626 5627 5628 5629 5630 5631 5632 5633
5660 5660 5661 5662 5661 5660 5660 5660 5659 5658 5657 5656 5655 5654 5653 5651 5649 5648 5646 5644 5642 5641 5639 5638 5636 5634 5632 5630 5628 5626 5625 5623 5622 5622 5621 5621 5621 5621 5621 5622 5623 5624 5624 5624
5659 5659 5659 5660 5659 5659 5659 5658 5658 5657 5656 5655 5654 5652 5651 5649 5648 5647 5645 5643 5642 5641 5639 5637 5635 5633 5631 5628 5626 5624 5622 5621 5620 5619 5618 5617 5616 5616 5615 5616 5616 5616 5616 5616
5658 5658 5658 5659 5658 5658 5658 5657 5657 5656 5655 5654 5652 5651 5649 5648 5647 5645 5644 5643 5641 5640 5638 5636 5634 5632 5629 5627 5625 5622 5620 5619 5617 5616 5614 5613 5611 5610 5610 5609 5609 5608 5608 5606
5657 5657 5657 5657 5657 5656 5657 5656 5655 5654 5654 5653 5651 5651 5648 5647 5645 5644 5643 5641 5640 5639 5637 5635 5633 5630 5628 5625 5623 5620 5618 5616 5614 5613 5611 5609 5606 5605 5603 5602 5601 5600 5599 5597
5655 5655 5655 5655 5655 5655 5657 5654 5653 5652 5652 5651 5650 5648 5647 5645 5644 5642 5641 5640 5638 5637 5635 5633 5631 5628 5626 5623 5620 5618 5615 5613 5611 5609 5607 5604 5601 5599 5597 5596 5594 5592 5590 5588
5653 5653 5653 5652 5652 5652 5653 5652 5650 5650 5650 5649 5648 5647 5645 5644 5642 5641 5639 5637 5636 5634 5632 5630 5628 5625 5623 5620 5617 5615 5612 5609 5607 5605 5602 5600 5597 5594 5592 5590 5587 5585 5582 5579
5651 5650 5651 5650 5649 5649 5651 5649 5648 5649 5647 5646 5645 5644 5643 5641 5640 5640 5637 5635 5633 5631 5629 5627 5624 5621 5619 5616 5613 5610 5607 5605 5603 5601 5598 5595 5592 5589 5586 5584 5581 5578 5574 5571
5648 5647 5647 5646 5645 5646 5647 5645 5645 5646 5645 5643 5641 5640 5639 5638 5637 5636 5634 5632 5630 5628 5625 5623 5620 5617 5615 5612 5609 5606 5604 5601 5598 5596 5593 5590 5587 5584 5581 5577 5574 5571 5567 5563
5644 5644 5643 5642 5642 5645 5642 5641 5642 5642 5640 5639 5637 5636 5635 5634 5632 5631 5629 5628 5626 5623 5621 5618 5615 5613 5610 5607 5605 5602 5599 5597 5594 5591 5588 5585 5582 5578 5575 5571 5567 5563 5559 5555
5641 5640 5639 5639 5641 5639 5637 5637 5636 5636 5635 5634 5633 5631 5630 5628 5627 5626 5624 5622 5620 5618 5615 5613 5610 5608 5605 5602 5600 5597 5594 5591 5588 5586 5583 5579 5576 5572 5568 5564 5560 5556 5551 5547
5637 5635 5634 5634 5634 5633 5632 5631 5631 5630 5629 5628 5627 5625 5623 5622 5620 5619 5617 5615 5613 5611 5609 5606 5604 5602 5599 5596 5593 5590 5588 5585 5582 5579 5575 5572 5568 5564 5560 5556 5552 5547 5543 5539
5632 5630 5628 5628 5628 5627 5626 5625 5624 5623 5621 5620 5619 5618 5616 5614 5613 5611 5609 5607 5605 5603 5601 5599 5596 5594 5592 5589 5586 5583 5580 5577 5574 5571 5567 5564 5560 5556 5551 5547 5542 5538 5533 5529
5625 5624 5622 5622 5621 5620 5619 5617 5616 5615 5614 5612 5611 5610 5608 5606 5604 5602 5600 5598 5596 5594 5592 5590 5588 5586 5583 5581 5578 5575 5572 5569 5565 5562 5559 5555 5551 5546 5542 5537 5532 5527 5523 5518
Wind_Speed
16 16 16 15 16 16 16 15 15 15 15 16 17 17 19 20 21 21 21 22 23 23 24 25 27 29 31 33 35 38 42 46 49 50 51 52 53 53 52 52 52 51 49 49
14 14 13 12 13 12 12 12 12 12 13 15 15 14 15 17 18 19 19 19 20 20 21 22 24 26 28 30 31 34 39 42 44 47 48 50 52 53 53 52 53 52 51 51
12 11 11 11 11 11 11 11 11 11 11 12 12 13 13 14 14 15 15 16 17 19 20 21 22 23 25 28 30 32 36 39 41 44 45 47 51 53 53 52 51 52 51 50
11 10 10 10 10 10 9 9 9 9 10 10 10 10 11 12 13 13 14 15 15 16 17 18 21 23 24 25 28 31 33 37 40 43 45 46 48 51 52 51 51 52 51 50
9 9 8 9 8 8 8 8 8 8 8 8 8 8 9 10 11 11 12 13 14 15 15 15 18 20 23 24 26 28 30 34 38 41 42 44 45 47 49 50 51 51 51 51
8 8 8 7 6 6 6 6 7 7 6 6 6 7 6 7 9 10 10 11 13 13 13 13 14 15 18 20 23 25 27 30 34 36 39 40 42 44 46 47 49 50 50 50
8 7 7 6 5 5 4 5 5 4 4 4 5 6 6 6 7 9 9 9 10 11 11 11 11 13 14 16 18 21 23 26 30 32 35 37 39 42 43 44 46 48 49 49
7 7 7 6 5 4 5 4 4 3 4 4 5 5 5 6 7 7 7 7 7 7 8 10 10 10 10 12 13 16 19 21 24 28 31 34 35 38 41 42 43 45 47 47
6 6 6 5 5 4 4 3 3 4 4 5 5 5 5 6 6 6 5 5 5 6 7 7 7 7 8 10 11 13 16 18 19 23 28 30 32 34 37 39 41 43 45 46
5 5 5 5 5 4 3 3 3 3 4 5 5 5 5 5 4 4 4 5 5 4 4 5 5 6 7 8 9 11 13 15 17 20 24 27 30 32 33 34 36 39 40 43
5 4 4 4 3 3 3 2 2 3 4 5 6 6 5 5 5 5 5 5 5 4 4 4 4 5 5 5 6 8 9 11 13 15 19 23 26 30 32 32 34 35 37 38
4 4 4 3 3 2 2 2 2 3 4 5 6 5 5 5 5 4 4 4 3 3 4 3 3 2 3 5 6 6 7 9 11 13 16 18 21 25 27 29 29 32 34 36
3 3 3 3 3 2 2 1 2 3 4 5 4 4 4 5 4 4 5 3 3 3 3 3 4 4 4 4 5 6 6 7 9 10 12 15 17 20 23 25 26 28 29 32
3 3 3 3 3 2 2 2 2 3 4 4 4 3 3 3 4 4 4 3 3 3 4 5 5 5 5 5 5 6 7 7 7 8 9 12 14 16 18 20 24 26 28 29
3 3 3 3 3 3 2 2 3 3 3 4 4 3 4 4 4 4 3 3 3 4 5 6 6 6 7 7 7 7 7 7 7 8 10 11 13 15 17 20 22 25 27 30
4 4 5 5 5 5 4 3 3 3 3 4 4 4 5 5 5 4 4 4 4 5 6 7 7 8 9 9 9 8 8 8 9 11 12 13 15 16 18 20 22 24 26 28
5 5 6 7 7 7 6 5 4 4 4 4 4 5 5 5 5 5 5 5 6 7 7 7 7 8 9 9 10 10 10 10 10 12 14 15 16 18 20 21 23 25 28 30
6 6 7 7 7 7 6 6 6 6 5 5 5 6 6 5 5 5 6 6 7 7 7 7 8 9 10 10 11 11 11 12 12 13 15 16 16 17 19 21 23 25 28 30
7 8 8 8 8 8 7 7 7 7 7 7 7 7 6 6 6 6 7 8 9 9 9 10 10 11 12 12 13 14 14 13 14 15 16 17 18 18 20 21 22 24 26 28
9 9 9 9 9 9 8 9 9 8 9 9 9 9 8 8 8 8 8 9 11 11 12 13 13 13 14 14 15 16 16 15 16 16 17 18 20 21 22 23 25 26 27 28
11 11 11 11 11 10 9 10 10 10 10 10 11 11 11 11 10 10 11 12 13 14 15 16 16 16 16 17 18 18 18 18 19 20 20 21 22 23 24 25 26 28 29 30
12 13 13 13 12 11 11 12 12 12 12 12 13 13 14 14 14 14 14 15 16 17 18 18 19 19 19 19 19 19 20 21 22 23 24 25 26 27 28 29 29 30 30 31
13 14 14 14 14 13 14 14 14 15 15 15 16 17 17 17 17 18 18 19 20 20 21 21 21 21 21 21 22 22 23 24 25 25 26 27 29 30 31 32 31 31 31 31
15 15 16 16 16 17 16 17 17 18 18 19 20 20 20 20 21 21 22 22 22 23 23 24 24 24 24 24 24 24 25 26 27 28 28 30 31 33 34 33 33 33 33 33
17 18 19 18 19 19 19 20 21 21 22 22 23 23 24 24 24 25 25 26 26 26 26 26 26 26 27 27 26 27 27 28 28 30 31 32 33 34 34 34 34 35 35 36
20 21 22 21 21 22 22 23 24 25 25 25 26 27 27 27 28 28 29 29 29 29 29 29 29 29 29 29 30 30 30 30 31 32 33 34 34 35 36 37 37 37 37 37
Wind_Direction
240 243 243 245 250 255 260 260 260 259 260 263 264 263 261 264 265 266 266 263 259 257 252 248 244 242 242 239 237 236 233 233 233 233 234 234 236 235 236 236 235 237 238 239
237 236 237 239 246 255 257 255 256 261 265 268 267 264 265 264 266 267 265 264 260 254 254 251 246 244 242 240 239 238 236 236 235 233 234 235 234 234 236 236 235 236 239 240
231 232 236 239 244 251 252 254 255 262 270 272 266 265 268 269 270 267 264 263 258 256 255 253 251 247 246 243 242 241 238 237 236 235 235 235 236 236 235 235 237 237 239 240
221 227 233 237 241 245 251 251 255 265 271 267 263 263 265 271 271 271 272 264 261 260 259 254 250 248 249 245 246 243 240 238 237 236 236 237 236 234 234 235 237 238 239 240
212 221 228 234 241 248 252 254 261 268 270 267 264 267 265 269 270 272 275 269 265 262 262 261 257 254 251 248 245 245 242 240 237 237 236 236 235 234 234 236 237 240 241 242
208 217 224 229 238 250 251 258 266 272 275 273 271 273 272 274 276 277 278 277 269 267 264 269 267 260 255 252 248 247 244 242 239 240 239 236 234 235 236 237 239 240 242 243
201 213 222 229 242 250 255 265 272 273 276 284 282 277 275 285 288 287 286 285 274 266 265 267 265 262 259 254 251 251 247 245 242 240 237 234 237 238 239 240 240 241 243 244
200 214 221 230 241 249 257 258 262 277 288 297 301 295 283 293 300 295 290 292 280 268 262 266 268 266 262 257 252 249 245 243 242 239 237 238 240 239 239 242 243 243 244 245
207 217 223 234 244 252 251 245 258 282 296 309 313 309 292 299 301 291 292 297 291 280 267 269 273 270 264 264 257 250 244 242 242 240 239 240 240 240 243 244 245 245 245 244
205 217 228 236 241 241 234 241 262 284 302 310 311 315 309 301 296 287 285 293 297 295 280 278 284 279 275 277 270 261 243 244 246 244 240 240 242 241 243 244 244 246 246 245
195 210 221 223 221 218 218 249 280 289 301 309 310 312 316 312 306 302 297 299 305 312 314 310 288 270 286 290 280 263 249 247 253 253 246 242 242 243 245 246 248 248 247 247
182 197 206 205 206 210 230 268 291 303 312 319 318 315 312 321 318 315 318 311 308 324 317 314 325 321 301 287 286 280 270 267 262 263 259 254 248 245 245 248 251 250 249 249
173 190 204 212 214 218 232 273 294 308 321 328 325 321 316 326 331 319 318 322 321 317 315 311 311 307 312 305 290 289 295 290 276 272 268 263 259 255 253 254 254 253 255 255
194 202 208 220 232 240 246 278 306 318 333 344 347 334 325 326 331 328 322 329 323 314 313 317 324 321 319 324 320 317 311 304 293 284 278 270 265 262 260 259 260 260 262 264
226 231 232 233 240 244 248 275 304 321 341 343 344 328 314 313 318 324 320 311 313 314 316 316 320 324 326 326 327 319 313 311 308 302 293 285 278 275 270 266 264 265 267 269
242 249 248 249 248 245 247 268 284 304 318 328 330 328 313 314 314 320 321 314 305 304 309 314 321 321 325 330 332 330 321 311 306 307 306 297 285 282 279 275 273 272 273 274
254 257 258 258 255 255 256 258 267 285 298 310 323 322 313 308 303 303 307 312 310 305 308 314 318 317 322 328 330 329 328 323 314 308 306 302 295 289 285 282 281 280 278 278
265 263 265 266 262 259 257 259 266 271 282 294 307 309 310 308 304 308 315 318 320 317 315 314 316 316 320 325 329 328 323 319 319 317 316 313 306 302 296 290 287 285 283 281
267 265 269 268 263 261 262 265 267 269 273 280 288 295 300 303 304 307 313 316 319 319 314 313 313 313 315 318 321 323 321 318 319 322 321 319 316 310 304 299 297 295 293 291
268 264 267 268 267 267 266 267 267 267 271 274 278 281 284 286 290 300 306 310 314 314 315 315 313 312 313 314 316 318 319 317 316 316 318 317 317 315 312 307 305 303 302 300
271 268 267 269 269 268 267 266 268 271 273 274 276 277 280 281 283 292 298 303 307 309 313 314 313 311 310 311 312 312 312 311 311 311 312 314 315 314 313 312 309 306 305 303
276 270 266 266 266 267 266 267 268 270 272 274 276 277 280 281 280 286 291 296 301 303 305 307 308 308 306 307 308 309 309 308 308 308 309 311 312 312 312 313 311 309 308 306
278 273 269 265 263 263 265 267 268 269 270 273 275 277 279 280 280 284 289 292 294 296 298 301 303 304 304 303 303 304 306 306 307 307 308 308 310 311 311 311 310 309 307 306
275 274 271 265 263 263 264 265 268 270 271 272 275 276 278 279 279 282 286 288 290 292 295 297 299 300 301 301 301 302 303 305 305 305 306 308 309 310 310 309 309 308 306 305
275 273 272 269 268 268 266 266 267 269 272 274 275 276 278 280 280 281 284 286 288 289 291 293 295 296 298 300 300 301 301 303 303 304 305 305 306 307 307 307 307 307 305 304
276 276 275 273 272 272 270 269 269 271 273 275 276 276 277 279 280 281 283 285 286 287 288 289 291 292 294 295 297 298 299 300 301 302 304 305 306 306 306 307 306 305 304 304